Regional Weather Roundup
Issued by NWS Cleveland, OH

Home | Current Version | Previous Version | Text Only | Print | Product List | Glossary Off
Versions: 1 2 3 4 5 6 7 8 9 10 11 12 13 14 15 16 17 18 19 20 21 22 23 24 25 26 27 28 29 30 31 32 33 34 35 36 37 38 39 40 41 42 43 44 45 46 47 48 49 50

000
ASUS41 KCLE 201202
RWRCLE
OHIO REGIONAL WEATHER ROUNDUP
NATIONAL WEATHER SERVICE CLEVELAND, OH
800 AM EDT FRI APR 20 2018

NOTE: "FAIR" INDICATES FEW OR NO CLOUDS BELOW 12,000 FEET WITH NO
SIGNIFICANT WEATHER AND/OR OBSTRUCTIONS TO VISIBILITY.

OHZ001>008-015>018-024>027-034-035-043-044-201300-
   NORTHWEST OHIO

CITY           SKY/WX    TMP DP  RH WIND       PRES   REMARKS
DEFIANCE       FAIR      33  25  72 NW5       30.47R WCI  29
FINDLAY        FAIR      33  25  72 NW7       30.45R WCI  27
TOLEDO EXPRESS FAIR      35  22  58 NW5       30.46R
TOLEDO EXEC    FAIR      34  24  67 NW7       30.47R WCI  28
LIMA           FAIR      34  27  75 NW5       30.46R WCI  30
$$

OHZ009>014-019>023-028>033-038-089-201300-
   NORTHEAST OHIO

CITY           SKY/WX    TMP DP  RH WIND       PRES   REMARKS
CLE-HOPKINS    FAIR      35  29  78 W6        30.43R
CLE-LAKEFRONT  FAIR      38  28  67 NW14      30.40R
CUY CO. ARPT   NOT AVBL
LORAIN-ELYRIA  FAIR      34  27  75 NW10      30.42R WCI  26
ASHTABULA      FAIR      34  29  82 NW3       30.37R
AKRON-CANTON   FAIR      33  26  75 NW8       30.38R WCI  26
WOOSTER        FAIR      34  28  79 NW7       30.41R WCI  28
MANSFIELD      FAIR      34  27  75 W7        30.41R WCI  28
YOUNGSTOWN     FAIR      32  25  75 W3        30.35R
$$

OHZ042-051>053-060>062-070>072-077>081-201300-
  SOUTHWEST OHIO

CITY           SKY/WX    TMP DP  RH WIND       PRES   REMARKS
CINC-COVINGTON FAIR      36  28  73 N8        30.44R
CINC-LUNKEN    FAIR      37  30  75 N3        30.47R
HAMILTON       FAIR      35  28  75 CALM      30.47R
DAYTON         FAIR      32  29  88 N5        30.46R WCI  27
WRIGHT-PAT AFB FAIR      31  28  89 CALM      30.45R
DAYTON GENERAL FAIR      36  28  73 N3        30.44R
WILMINGTON     FAIR      38  32  79 N6        30.43R
$$

OHZ036-037-039>041-045>050-054>059-063>069-073>076-082>088-201300-
  CENTRAL AND SOUTHEAST OHIO

CITY           SKY/WX    TMP DP  RH WIND       PRES   REMARKS
COLUMBUS       FAIR      34  27  75 CALM      30.44R
OSU AIRPORT    FAIR      33  28  81 NW3       30.43R
BOLTON FIELD   SUNNY     34  30  86 CALM      30.44R
RICKENBACK AFB FAIR      32  29  89 CALM      30.44R
NEWARK         FAIR      31  27  85 CALM      30.43R
MARION         FAIR      32  28  85 NW7       30.43R WCI  26
LANCASTER      FAIR      31  29  92 CALM      30.44R
ZANESVILLE     FAIR      31  25  78 CALM      30.42R
NEW PHILLY     FAIR      31  26  82 CALM      30.41R
$$



USA.gov is the U.S. government's official web portal to all federal, state and local government web resources and services.